Time,TemperatureF,DewpointF,PressureIn,WindDirection,WindDirectionDegrees,WindSpeedMPH,WindSpeedGustMPH,Humidity,HourlyPrecipIn,Conditions,Clouds,dailyrainin,SoftwareType,DateUTC
2013-02-16 00:00:00,39.2,38.0,29.64,SSE,157,2.0,5.0,96,0.00,,,0.00,Rainwise IP-100,2013-02-16 05:00:00,
2013-02-16 00:05:00,39.1,38.0,29.65,ESE,112,2.0,4.0,96,0.00,,,0.00,Rainwise IP-100,2013-02-16 05:05:00,
2013-02-16 00:10:00,39.0,38.0,29.64,SE,135,1.0,4.0,96,0.00,,,0.00,Rainwise IP-100,2013-02-16 05:10:00,
2013-02-16 00:15:00,38.9,38.0,29.64,ESE,112,2.0,4.0,96,0.00,,,0.00,Rainwise IP-100,2013-02-16 05:15:00,
2013-02-16 00:20:00,38.8,38.0,29.64,ESE,112,2.0,4.0,96,0.00,,,0.00,Rainwise IP-100,2013-02-16 05:20:00,
2013-02-16 00:25:00,38.7,38.0,29.64,ESE,112,2.0,3.0,96,0.00,,,0.00,Rainwise IP-100,2013-02-16 05:25:00,
2013-02-16 00:30:00,38.7,38.0,29.64,SSE,157,1.0,3.0,96,0.00,,,0.00,Rainwise IP-100,2013-02-16 05:30:00,
2013-02-16 00:35:00,38.8,38.0,29.64,SE,135,2.0,2.0,96,0.00,,,0.00,Rainwise IP-100,2013-02-16 05:35:00,
2013-02-16 00:40:00,38.9,38.0,29.64,ESE,112,2.0,4.0,96,0.00,,,0.00,Rainwise IP-100,2013-02-16 05:40:00,
2013-02-16 00:45:00,38.9,38.0,29.64,South,180,2.0,2.0,96,0.00,,,0.00,Rainwise IP-100,2013-02-16 05:45:00,
2013-02-16 00:50:00,38.8,38.0,29.64,West,270,1.0,2.0,96,0.00,,,0.00,Rainwise IP-100,2013-02-16 05:50:00,
2013-02-16 00:55:00,38.8,38.0,29.64,SW,225,0.0,2.0,96,0.00,,,0.00,Rainwise IP-100,2013-02-16 05:55:00,
2013-02-16 01:00:00,38.8,38.0,29.64,SW,225,0.0,1.0,96,0.00,,,0.00,Rainwise IP-100,2013-02-16 06:00:00,
2013-02-16 01:05:00,38.8,38.0,29.64,South,180,1.0,2.0,96,0.00,,,0.00,Rainwise IP-100,2013-02-16 06:05:00,
2013-02-16 01:10:00,38.9,38.0,29.64,SSE,157,0.0,2.0,96,0.00,,,0.00,Rainwise IP-100,2013-02-16 06:10:00,
2013-02-16 01:15:00,38.8,38.0,29.64,SSE,157,0.0,2.0,96,0.00,,,0.00,Rainwise IP-100,2013-02-16 06:15:00,
2013-02-16 01:20:00,38.6,38.0,29.64,SE,135,2.0,2.0,96,0.00,,,0.00,Rainwise IP-100,2013-02-16 06:20:00,
2013-02-16 01:25:00,38.5,38.0,29.64,SE,135,0.0,2.0,96,0.00,,,0.00,Rainwise IP-100,2013-02-16 06:25:00,
2013-02-16 01:30:00,38.5,38.0,29.64,SE,135,2.0,2.0,96,0.00,,,0.00,Rainwise IP-100,2013-02-16 06:30:00,
2013-02-16 01:35:00,38.5,38.0,29.64,SE,135,0.0,2.0,96,0.00,,,0.00,Rainwise IP-100,2013-02-16 06:35:00,
2013-02-16 01:40:00,38.3,37.0,29.64,SE,135,0.0,0.0,96,0.00,,,0.00,Rainwise IP-100,2013-02-16 06:40:00,
2013-02-16 01:45:00,37.9,37.0,29.64,SE,135,0.0,0.0,95,0.00,,,0.00,Rainwise IP-100,2013-02-16 06:45:00,
2013-02-16 01:50:00,37.4,36.0,29.64,SE,135,1.0,2.0,95,0.00,,,0.00,Rainwise IP-100,2013-02-16 06:50:00,
2013-02-16 01:55:00,37.2,36.0,29.63,SE,135,0.0,2.0,95,0.00,,,0.00,Rainwise IP-100,2013-02-16 06:55:00,
2013-02-16 02:00:00,36.8,36.0,29.63,SE,135,1.0,2.0,95,0.00,,,0.00,Rainwise IP-100,2013-02-16 07:00:00,
2013-02-16 02:05:00,36.5,36.0,29.63,ESE,112,1.0,2.0,95,0.00,,,0.00,Rainwise IP-100,2013-02-16 07:05:00,
2013-02-16 02:10:00,36.2,35.0,29.63,ESE,112,1.0,2.0,95,0.00,,,0.00,Rainwise IP-100,2013-02-16 07:10:00,
2013-02-16 02:15:00,35.9,35.0,29.63,ESE,112,2.0,2.0,95,0.00,,,0.00,Rainwise IP-100,2013-02-16 07:15:00,
2013-02-16 02:16:00,35.9,35.0,29.63,ESE,112,1.0,2.0,95,0.00,,,0.00,Rainwise IP-100,2013-02-16 07:16:00,
2013-02-16 02:21:00,36.1,35.0,29.63,ESE,112,0.0,1.0,95,0.00,,,0.00,Rainwise IP-100,2013-02-16 07:21:00,
2013-02-16 02:26:00,36.1,35.0,29.64,ESE,112,0.0,0.0,95,0.00,,,0.00,Rainwise IP-100,2013-02-16 07:26:00,
2013-02-16 02:31:00,35.9,35.0,29.64,ESE,112,0.0,0.0,95,0.00,,,0.00,Rainwise IP-100,2013-02-16 07:31:00,
2013-02-16 02:36:00,35.4,33.0,29.64,ESE,112,2.0,2.0,95,0.00,,,0.00,Rainwise IP-100,2013-02-16 07:36:00,
2013-02-16 02:41:00,34.8,33.0,29.64,ESE,112,2.0,2.0,95,0.00,,,0.00,Rainwise IP-100,2013-02-16 07:41:00,
2013-02-16 02:46:00,34.7,33.0,29.63,ESE,112,1.0,2.0,95,0.00,,,0.00,Rainwise IP-100,2013-02-16 07:46:00,
2013-02-16 02:51:00,34.6,33.0,29.63,ESE,112,1.0,2.0,95,0.00,,,0.00,Rainwise IP-100,2013-02-16 07:51:00,
2013-02-16 02:56:00,34.4,33.0,29.62,East,90,1.0,2.0,95,0.00,,,0.00,Rainwise IP-100,2013-02-16 07:56:00,
2013-02-16 03:01:00,34.0,33.0,29.62,East,90,1.0,2.0,95,0.00,,,0.00,Rainwise IP-100,2013-02-16 08:01:00,
2013-02-16 03:06:00,33.6,33.0,29.62,East,90,0.0,2.0,95,0.00,,,0.00,Rainwise IP-100,2013-02-16 08:06:00,
2013-02-16 03:11:00,33.3,32.0,29.62,East,90,1.0,2.0,95,0.00,,,0.00,Rainwise IP-100,2013-02-16 08:11:00,
2013-02-16 03:16:00,33.1,32.0,29.62,East,90,0.0,2.0,95,0.00,,,0.00,Rainwise IP-100,2013-02-16 08:16:00,
2013-02-16 03:21:00,33.1,32.0,29.61,NW,315,0.0,2.0,95,0.00,,,0.00,Rainwise IP-100,2013-02-16 08:21:00,
2013-02-16 03:26:00,32.9,32.0,29.61,ESE,112,1.0,3.0,95,0.00,,,0.00,Rainwise IP-100,2013-02-16 08:26:00,
2013-02-16 03:31:00,32.7,32.0,29.60,ESE,112,0.0,2.0,95,0.00,,,0.00,Rainwise IP-100,2013-02-16 08:31:00,
2013-02-16 03:36:00,31.9,31.0,29.60,ESE,112,1.0,2.0,95,0.00,,,0.00,Rainwise IP-100,2013-02-16 08:36:00,
2013-02-16 03:41:00,32.0,31.0,29.60,ESE,112,2.0,2.0,95,0.00,,,0.00,Rainwise IP-100,2013-02-16 08:41:00,
2013-02-16 03:46:00,31.9,31.0,29.60,ESE,112,2.0,2.0,95,0.00,,,0.00,Rainwise IP-100,2013-02-16 08:46:00,
2013-02-16 03:51:00,31.7,31.0,29.60,ESE,112,2.0,2.0,95,0.00,,,0.00,Rainwise IP-100,2013-02-16 08:51:00,
2013-02-16 03:56:00,31.5,31.0,29.60,ESE,112,1.0,2.0,95,0.00,,,0.00,Rainwise IP-100,2013-02-16 08:56:00,
2013-02-16 04:01:00,31.4,29.0,29.59,ESE,112,2.0,2.0,95,0.00,,,0.00,Rainwise IP-100,2013-02-16 09:01:00,
2013-02-16 04:06:00,31.3,29.0,29.59,ESE,112,2.0,2.0,95,0.00,,,0.00,Rainwise IP-100,2013-02-16 09:06:00,
2013-02-16 04:11:00,30.9,29.0,29.59,ESE,112,0.0,2.0,94,0.00,,,0.00,Rainwise IP-100,2013-02-16 09:11:00,
2013-02-16 04:16:00,30.7,29.0,29.59,ESE,112,0.0,0.0,94,0.00,,,0.00,Rainwise IP-100,2013-02-16 09:16:00,
2013-02-16 04:21:00,30.2,29.0,29.59,ESE,112,1.0,2.0,94,0.00,,,0.00,Rainwise IP-100,2013-02-16 09:21:00,
2013-02-16 04:26:00,29.9,29.0,29.59,ESE,112,1.0,2.0,94,0.00,,,0.00,Rainwise IP-100,2013-02-16 09:26:00,
2013-02-16 04:31:00,29.6,29.0,29.58,ESE,112,1.0,2.0,94,0.00,,,0.00,Rainwise IP-100,2013-02-16 09:31:00,
2013-02-16 04:36:00,29.6,29.0,29.58,ESE,112,2.0,2.0,94,0.00,,,0.00,Rainwise IP-100,2013-02-16 09:36:00,
2013-02-16 04:41:00,29.5,29.0,29.58,ESE,112,1.0,2.0,94,0.00,,,0.00,Rainwise IP-100,2013-02-16 09:41:00,
2013-02-16 04:46:00,29.9,29.0,29.58,ESE,112,0.0,2.0,94,0.00,,,0.00,Rainwise IP-100,2013-02-16 09:46:00,
2013-02-16 04:51:00,29.9,29.0,29.58,ESE,112,0.0,0.0,94,0.00,,,0.00,Rainwise IP-100,2013-02-16 09:51:00,
2013-02-16 04:56:00,29.9,29.0,29.58,ESE,112,0.0,0.0,94,0.00,,,0.00,Rainwise IP-100,2013-02-16 09:56:00,
2013-02-16 05:01:00,29.9,29.0,29.58,ESE,112,0.0,0.0,94,0.00,,,0.00,Rainwise IP-100,2013-02-16 10:01:00,
2013-02-16 05:06:00,29.6,29.0,29.58,ESE,112,0.0,0.0,94,0.00,,,0.00,Rainwise IP-100,2013-02-16 10:06:00,
2013-02-16 05:11:00,29.5,29.0,29.58,ESE,112,0.0,0.0,94,0.00,,,0.00,Rainwise IP-100,2013-02-16 10:11:00,
2013-02-16 05:16:00,29.3,28.0,29.58,ESE,112,1.0,2.0,94,0.00,,,0.00,Rainwise IP-100,2013-02-16 10:16:00,
2013-02-16 05:21:00,29.4,28.0,29.58,ESE,112,0.0,1.0,94,0.00,,,0.00,Rainwise IP-100,2013-02-16 10:21:00,
2013-02-16 05:26:00,29.5,29.0,29.58,ESE,112,2.0,2.0,94,0.00,,,0.00,Rainwise IP-100,2013-02-16 10:26:00,
2013-02-16 05:31:00,29.7,29.0,29.58,ESE,112,2.0,2.0,94,0.00,,,0.00,Rainwise IP-100,2013-02-16 10:31:00,
2013-02-16 05:36:00,29.8,29.0,29.57,ESE,112,1.0,2.0,94,0.00,,,0.00,Rainwise IP-100,2013-02-16 10:36:00,
2013-02-16 05:41:00,30.2,29.0,29.56,ESE,112,2.0,2.0,94,0.00,,,0.00,Rainwise IP-100,2013-02-16 10:41:00,
2013-02-16 05:46:00,30.1,29.0,29.56,ESE,112,1.0,2.0,94,0.00,,,0.00,Rainwise IP-100,2013-02-16 10:46:00,
2013-02-16 05:51:00,30.9,29.0,29.56,ESE,112,1.0,2.0,94,0.00,,,0.00,Rainwise IP-100,2013-02-16 10:51:00,
2013-02-16 05:56:00,31.1,29.0,29.56,ESE,112,0.0,2.0,95,0.00,,,0.00,Rainwise IP-100,2013-02-16 10:56:00,
2013-02-16 06:01:00,31.3,29.0,29.56,WNW,292,2.0,2.0,95,0.00,,,0.00,Rainwise IP-100,2013-02-16 11:01:00,
2013-02-16 06:06:00,31.0,29.0,29.57,NW,315,2.0,3.0,95,0.00,,,0.00,Rainwise IP-100,2013-02-16 11:06:00,
2013-02-16 06:11:00,31.2,29.0,29.57,West,270,0.0,2.0,95,0.00,,,0.00,Rainwise IP-100,2013-02-16 11:11:00,
2013-02-16 06:16:00,31.2,29.0,29.57,West,270,0.0,0.0,95,0.00,,,0.00,Rainwise IP-100,2013-02-16 11:16:00,
2013-02-16 06:21:00,31.2,29.0,29.56,WSW,247,0.0,2.0,95,0.00,,,0.00,Rainwise IP-100,2013-02-16 11:21:00,
2013-02-16 06:26:00,31.5,31.0,29.56,WSW,247,2.0,2.0,95,0.00,,,0.00,Rainwise IP-100,2013-02-16 11:26:00,
2013-02-16 06:31:00,31.8,31.0,29.57,West,270,1.0,3.0,95,0.00,,,0.00,Rainwise IP-100,2013-02-16 11:31:00,
2013-02-16 06:36:00,31.9,31.0,29.58,SW,225,2.0,3.0,95,0.00,,,0.00,Rainwise IP-100,2013-02-16 11:36:00,
2013-02-16 06:41:00,32.1,31.0,29.58,WSW,247,0.0,3.0,95,0.00,,,0.00,Rainwise IP-100,2013-02-16 11:41:00,
2013-02-16 06:46:00,32.2,31.0,29.59,WNW,292,1.0,4.0,95,0.00,,,0.00,Rainwise IP-100,2013-02-16 11:46:00,
2013-02-16 06:51:00,32.3,31.0,29.59,NNW,337,1.0,4.0,95,0.00,,,0.00,Rainwise IP-100,2013-02-16 11:51:00,
2013-02-16 06:56:00,32.3,31.0,29.60,NNW,337,1.0,4.0,95,0.00,,,0.00,Rainwise IP-100,2013-02-16 11:56:00,
2013-02-16 07:01:00,32.3,31.0,29.60,NW,315,1.0,4.0,95,0.00,,,0.00,Rainwise IP-100,2013-02-16 12:01:00,
2013-02-16 07:06:00,32.3,31.0,29.60,NW,315,0.0,2.0,95,0.00,,,0.00,Rainwise IP-100,2013-02-16 12:06:00,
2013-02-16 07:11:00,32.3,31.0,29.60,NW,315,0.0,1.0,95,0.00,,,0.00,Rainwise IP-100,2013-02-16 12:11:00,
2013-02-16 07:16:00,32.3,31.0,29.60,ESE,112,1.0,2.0,95,0.00,,,0.00,Rainwise IP-100,2013-02-16 12:16:00,
2013-02-16 07:21:00,32.3,31.0,29.60,ESE,112,2.0,2.0,95,0.00,,,0.00,Rainwise IP-100,2013-02-16 12:21:00,
2013-02-16 07:26:00,32.3,31.0,29.60,SSE,157,1.0,2.0,95,0.00,,,0.00,Rainwise IP-100,2013-02-16 12:26:00,
2013-02-16 07:31:00,32.3,31.0,29.60,SE,135,2.0,2.0,95,0.00,,,0.00,Rainwise IP-100,2013-02-16 12:31:00,
2013-02-16 07:36:00,32.4,31.0,29.59,South,180,0.0,2.0,95,0.00,,,0.00,Rainwise IP-100,2013-02-16 12:36:00,
2013-02-16 07:41:00,32.6,32.0,29.60,ESE,112,0.0,2.0,95,0.00,,,0.00,Rainwise IP-100,2013-02-16 12:41:00,
2013-02-16 07:46:00,32.7,32.0,29.59,East,90,0.0,2.0,95,0.00,,,0.00,Rainwise IP-100,2013-02-16 12:46:00,
2013-02-16 07:51:00,32.9,32.0,29.59,West,270,1.0,2.0,95,0.00,,,0.00,Rainwise IP-100,2013-02-16 12:51:00,
2013-02-16 07:56:00,33.3,32.0,29.59,SW,225,0.0,2.0,95,0.00,,,0.00,Rainwise IP-100,2013-02-16 12:56:00,
2013-02-16 08:01:00,33.7,33.0,29.60,WSW,247,2.0,2.0,95,0.00,,,0.00,Rainwise IP-100,2013-02-16 13:01:00,
2013-02-16 08:06:00,33.8,33.0,29.60,NW,315,1.0,2.0,95,0.00,,,0.00,Rainwise IP-100,2013-02-16 13:06:00,
2013-02-16 08:11:00,33.9,33.0,29.60,West,270,2.0,3.0,95,0.00,,,0.00,Rainwise IP-100,2013-02-16 13:11:00,
2013-02-16 08:16:00,33.8,33.0,29.60,North,360,1.0,2.0,95,0.00,,,0.00,Rainwise IP-100,2013-02-16 13:16:00,
2013-02-16 08:21:00,33.9,33.0,29.60,North,360,0.0,2.0,95,0.00,,,0.00,Rainwise IP-100,2013-02-16 13:21:00,
2013-02-16 08:26:00,33.8,33.0,29.60,WSW,247,2.0,2.0,95,0.00,,,0.00,Rainwise IP-100,2013-02-16 13:26:00,
2013-02-16 08:31:00,33.9,33.0,29.60,NW,315,2.0,3.0,95,0.00,,,0.00,Rainwise IP-100,2013-02-16 13:31:00,
2013-02-16 08:36:00,33.9,33.0,29.61,East,90,1.0,4.0,95,0.00,,,0.00,Rainwise IP-100,2013-02-16 13:36:00,
2013-02-16 08:41:00,34.1,33.0,29.60,NNW,337,0.0,3.0,95,0.00,,,0.00,Rainwise IP-100,2013-02-16 13:41:00,
2013-02-16 08:46:00,34.3,33.0,29.60,WNW,292,0.0,2.0,95,0.00,,,0.00,Rainwise IP-100,2013-02-16 13:46:00,
2013-02-16 08:51:00,34.4,33.0,29.60,North,360,1.0,2.0,95,0.00,,,0.00,Rainwise IP-100,2013-02-16 13:51:00,
2013-02-16 08:56:00,34.6,33.0,29.60,NW,315,2.0,2.0,95,0.00,,,0.00,Rainwise IP-100,2013-02-16 13:56:00,
2013-02-16 09:01:00,34.6,33.0,29.60,NNW,337,1.0,2.0,95,0.00,,,0.00,Rainwise IP-100,2013-02-16 14:01:00,
2013-02-16 09:06:00,34.7,33.0,29.61,NW,315,1.0,3.0,95,0.00,,,0.00,Rainwise IP-100,2013-02-16 14:06:00,
2013-02-16 09:11:00,34.7,33.0,29.61,NW,315,0.0,3.0,95,0.00,,,0.00,Rainwise IP-100,2013-02-16 14:11:00,
2013-02-16 09:16:00,34.8,33.0,29.61,NW,315,0.0,3.0,95,0.00,,,0.00,Rainwise IP-100,2013-02-16 14:16:00,
2013-02-16 09:21:00,34.9,33.0,29.61,SW,225,2.0,3.0,95,0.00,,,0.00,Rainwise IP-100,2013-02-16 14:21:00,
2013-02-16 09:26:00,35.2,33.0,29.61,NNW,337,3.0,4.0,95,0.00,,,0.00,Rainwise IP-100,2013-02-16 14:26:00,
2013-02-16 09:31:00,35.3,33.0,29.61,SW,225,2.0,4.0,95,0.00,,,0.00,Rainwise IP-100,2013-02-16 14:31:00,
2013-02-16 09:36:00,35.3,33.0,29.62,NW,315,1.0,3.0,95,0.00,,,0.00,Rainwise IP-100,2013-02-16 14:36:00,
2013-02-16 09:41:00,35.3,33.0,29.62,WSW,247,1.0,3.0,95,0.00,,,0.00,Rainwise IP-100,2013-02-16 14:41:00,
2013-02-16 09:46:00,34.9,33.0,29.62,WNW,292,2.0,4.0,95,0.00,,,0.00,Rainwise IP-100,2013-02-16 14:46:00,
2013-02-16 09:51:00,34.9,33.0,29.62,SE,135,2.0,4.0,95,0.00,,,0.00,Rainwise IP-100,2013-02-16 14:51:00,
2013-02-16 09:56:00,34.8,33.0,29.62,SE,135,0.0,5.0,95,0.00,,,0.00,Rainwise IP-100,2013-02-16 14:56:00,
2013-02-16 10:01:00,34.8,33.0,29.62,NNW,337,2.0,3.0,95,0.00,,,0.00,Rainwise IP-100,2013-02-16 15:01:00,
2013-02-16 10:06:00,34.9,33.0,29.62,NNW,337,1.0,3.0,95,0.00,,,0.00,Rainwise IP-100,2013-02-16 15:06:00,
2013-02-16 10:11:00,34.7,33.0,29.62,West,270,2.0,4.0,95,0.00,,,0.00,Rainwise IP-100,2013-02-16 15:11:00,
2013-02-16 10:16:00,34.5,33.0,29.61,NNW,337,2.0,6.0,95,0.00,,,0.00,Rainwise IP-100,2013-02-16 15:16:00,
2013-02-16 10:21:00,34.4,33.0,29.61,WNW,292,2.0,4.0,95,0.00,,,0.00,Rainwise IP-100,2013-02-16 15:21:00,
2013-02-16 10:26:00,34.3,33.0,29.62,East,90,1.0,4.0,95,0.00,,,0.00,Rainwise IP-100,2013-02-16 15:26:00,
2013-02-16 10:31:00,34.4,33.0,29.62,North,360,0.0,2.0,95,0.00,,,0.00,Rainwise IP-100,2013-02-16 15:31:00,
2013-02-16 10:36:00,34.4,33.0,29.61,NW,315,1.0,4.0,95,0.00,,,0.00,Rainwise IP-100,2013-02-16 15:36:00,
2013-02-16 10:41:00,34.6,33.0,29.61,West,270,2.0,3.0,95,0.00,,,0.00,Rainwise IP-100,2013-02-16 15:41:00,
2013-02-16 10:46:00,34.7,33.0,29.61,SSW,202,1.0,2.0,95,0.00,,,0.00,Rainwise IP-100,2013-02-16 15:46:00,
2013-02-16 10:51:00,34.8,33.0,29.60,WNW,292,0.0,2.0,95,0.00,,,0.00,Rainwise IP-100,2013-02-16 15:51:00,
2013-02-16 10:56:00,34.7,33.0,29.60,NNW,337,1.0,4.0,95,0.00,,,0.00,Rainwise IP-100,2013-02-16 15:56:00,
2013-02-16 11:01:00,34.8,33.0,29.60,NW,315,0.0,3.0,95,0.00,,,0.00,Rainwise IP-100,2013-02-16 16:01:00,
2013-02-16 11:06:00,34.8,33.0,29.60,WSW,247,1.0,4.0,94,0.00,,,0.00,Rainwise IP-100,2013-02-16 16:06:00,
2013-02-16 11:11:00,34.9,33.0,29.60,NNW,337,0.0,2.0,95,0.00,,,0.00,Rainwise IP-100,2013-02-16 16:11:00,
2013-02-16 11:16:00,34.9,32.0,29.60,NNW,337,2.0,4.0,92,0.00,,,0.00,Rainwise IP-100,2013-02-16 16:16:00,
2013-02-16 11:21:00,35.1,33.0,29.60,WSW,247,1.0,2.0,93,0.00,,,0.00,Rainwise IP-100,2013-02-16 16:21:00,
2013-02-16 11:26:00,35.2,32.0,29.59,WSW,247,2.0,6.0,90,0.00,,,0.00,Rainwise IP-100,2013-02-16 16:26:00,
2013-02-16 11:31:00,35.2,32.0,29.60,SSW,202,0.0,4.0,91,0.00,,,0.00,Rainwise IP-100,2013-02-16 16:31:00,
2013-02-16 11:36:00,35.3,32.0,29.60,NNW,337,1.0,3.0,88,0.00,,,0.00,Rainwise IP-100,2013-02-16 16:36:00,
2013-02-16 11:41:00,35.3,32.0,29.59,SW,225,2.0,2.0,89,0.00,,,0.00,Rainwise IP-100,2013-02-16 16:41:00,
2013-02-16 11:46:00,35.3,32.0,29.59,WNW,292,1.0,3.0,88,0.00,,,0.00,Rainwise IP-100,2013-02-16 16:46:00,
2013-02-16 11:51:00,35.2,32.0,29.59,WNW,292,2.0,2.0,88,0.00,,,0.00,Rainwise IP-100,2013-02-16 16:51:00,
2013-02-16 11:56:00,35.1,31.0,29.59,NNW,337,1.0,4.0,87,0.00,,,0.00,Rainwise IP-100,2013-02-16 16:56:00,
2013-02-16 12:01:00,34.9,31.0,29.59,NW,315,1.0,5.0,85,0.00,,,0.00,Rainwise IP-100,2013-02-16 17:01:00,
2013-02-16 12:06:00,34.8,31.0,29.58,NNW,337,2.0,5.0,86,0.00,,,0.00,Rainwise IP-100,2013-02-16 17:06:00,
2013-02-16 12:11:00,34.7,31.0,29.58,NNW,337,1.0,4.0,86,0.00,,,0.00,Rainwise IP-100,2013-02-16 17:11:00,
2013-02-16 12:16:00,34.7,31.0,29.58,NW,315,1.0,4.0,87,0.00,,,0.00,Rainwise IP-100,2013-02-16 17:16:00,
2013-02-16 12:21:00,34.7,31.0,29.58,WNW,292,3.0,4.0,87,0.00,,,0.00,Rainwise IP-100,2013-02-16 17:21:00,
2013-02-16 12:26:00,34.7,31.0,29.57,West,270,0.0,5.0,86,0.00,,,0.00,Rainwise IP-100,2013-02-16 17:26:00,
2013-02-16 12:31:00,34.9,31.0,29.57,SW,225,2.0,3.0,86,0.00,,,0.00,Rainwise IP-100,2013-02-16 17:31:00,
2013-02-16 12:36:00,35.0,31.0,29.57,NNW,337,1.0,3.0,86,0.00,,,0.00,Rainwise IP-100,2013-02-16 17:36:00,
2013-02-16 12:41:00,34.9,31.0,29.57,WNW,292,1.0,5.0,86,0.00,,,0.00,Rainwise IP-100,2013-02-16 17:41:00,
2013-02-16 12:46:00,34.9,31.0,29.57,North,360,2.0,6.0,86,0.00,,,0.00,Rainwise IP-100,2013-02-16 17:46:00,
2013-02-16 12:52:00,35.2,31.0,29.56,North,360,0.0,0.0,86,0.00,,,0.00,Rainwise IP-100,2013-02-16 17:52:00,
2013-02-16 12:57:00,35.1,31.0,29.56,East,90,2.0,6.0,86,0.00,,,0.00,Rainwise IP-100,2013-02-16 17:57:00,
2013-02-16 13:02:00,35.2,31.0,29.56,NW,315,2.0,4.0,86,0.00,,,0.00,Rainwise IP-100,2013-02-16 18:02:00,
2013-02-16 13:07:00,35.1,31.0,29.56,West,270,0.0,4.0,86,0.00,,,0.00,Rainwise IP-100,2013-02-16 18:07:00,
2013-02-16 13:12:00,35.0,31.0,29.56,WNW,292,3.0,3.0,86,0.00,,,0.00,Rainwise IP-100,2013-02-16 18:12:00,
2013-02-16 13:17:00,34.9,31.0,29.57,NW,315,7.0,8.0,86,0.00,,,0.00,Rainwise IP-100,2013-02-16 18:17:00,
2013-02-16 13:22:00,34.9,31.0,29.56,WNW,292,4.0,7.0,87,0.00,,,0.00,Rainwise IP-100,2013-02-16 18:22:00,
2013-02-16 13:27:00,34.8,31.0,29.57,East,90,2.0,7.0,87,0.00,,,0.00,Rainwise IP-100,2013-02-16 18:27:00,
2013-02-16 13:32:00,34.9,31.0,29.57,NNW,337,1.0,2.0,87,0.00,,,0.00,Rainwise IP-100,2013-02-16 18:32:00,
2013-02-16 13:37:00,34.8,32.0,29.56,NW,315,0.0,3.0,88,0.00,,,0.00,Rainwise IP-100,2013-02-16 18:37:00,
2013-02-16 13:42:00,34.5,32.0,29.56,NNW,337,2.0,6.0,88,0.00,,,0.00,Rainwise IP-100,2013-02-16 18:42:00,
2013-02-16 13:47:00,34.6,32.0,29.56,NW,315,2.0,2.0,89,0.00,,,0.00,Rainwise IP-100,2013-02-16 18:47:00,
2013-02-16 13:52:00,34.3,32.0,29.56,NW,315,2.0,6.0,89,0.00,,,0.00,Rainwise IP-100,2013-02-16 18:52:00,
2013-02-16 13:57:00,34.2,32.0,29.56,NW,315,3.0,3.0,90,0.00,,,0.00,Rainwise IP-100,2013-02-16 18:57:00,
2013-02-16 14:02:00,33.9,32.0,29.56,SW,225,2.0,2.0,90,0.00,,,0.00,Rainwise IP-100,2013-02-16 19:02:00,
2013-02-16 14:07:00,34.0,32.0,29.56,North,360,2.0,4.0,90,0.00,,,0.00,Rainwise IP-100,2013-02-16 19:07:00,
2013-02-16 14:12:00,33.9,32.0,29.56,NW,315,2.0,2.0,90,0.00,,,0.00,Rainwise IP-100,2013-02-16 19:12:00,
2013-02-16 14:14:00,33.7,32.0,29.56,North,360,2.0,2.0,91,0.00,,,0.00,Rainwise IP-100,2013-02-16 19:14:00,
2013-02-16 14:19:00,33.7,32.0,29.56,North,360,1.0,2.0,91,0.00,,,0.00,Rainwise IP-100,2013-02-16 19:19:00,
2013-02-16 14:24:00,33.6,32.0,29.56,NW,315,2.0,2.0,91,0.00,,,0.00,Rainwise IP-100,2013-02-16 19:24:00,
2013-02-16 14:30:00,33.5,32.0,29.56,WSW,247,2.0,2.0,91,0.00,,,0.00,Rainwise IP-100,2013-02-16 19:30:00,
2013-02-16 14:35:00,33.4,31.0,29.56,North,360,1.0,2.0,92,0.00,,,0.00,Rainwise IP-100,2013-02-16 19:35:00,
2013-02-16 15:26:00,33.4,31.0,29.56,North,360,1.0,3.0,92,0.00,,,0.00,Rainwise IP-100,2013-02-16 20:26:00,
2013-02-16 15:51:00,31.2,29.0,29.55,North,360,3.0,0.0,95,0.00,,,0.00,Rainwise IP-100,2013-02-16 20:51:00,
2013-02-16 16:03:00,30.9,29.0,29.54,SW,225,1.0,0.0,94,0.00,,,0.00,Rainwise IP-100,2013-02-16 21:03:00,
2013-02-16 16:09:00,30.7,29.0,29.54,NNW,337,1.0,0.0,94,0.00,,,0.00,Rainwise IP-100,2013-02-16 21:09:00,
2013-02-16 16:14:00,30.6,29.0,29.54,NNW,337,1.0,2.0,94,0.00,,,0.00,Rainwise IP-100,2013-02-16 21:14:00,
2013-02-16 16:19:00,30.2,29.0,29.54,NNW,337,6.0,6.0,94,0.00,,,0.00,Rainwise IP-100,2013-02-16 21:19:00,
2013-02-16 16:24:00,30.1,29.0,29.54,North,360,2.0,6.0,94,0.00,,,0.00,Rainwise IP-100,2013-02-16 21:24:00,
2013-02-16 16:29:00,29.9,29.0,29.54,SSW,202,2.0,3.0,94,0.00,,,0.00,Rainwise IP-100,2013-02-16 21:29:00,
2013-02-16 16:34:00,29.8,29.0,29.54,WSW,247,0.0,2.0,94,0.00,,,0.00,Rainwise IP-100,2013-02-16 21:34:00,
2013-02-16 16:39:00,29.7,29.0,29.54,NW,315,1.0,3.0,94,0.00,,,0.00,Rainwise IP-100,2013-02-16 21:39:00,
2013-02-16 16:44:00,29.7,29.0,29.54,SW,225,2.0,2.0,94,0.00,,,0.00,Rainwise IP-100,2013-02-16 21:44:00,
2013-02-16 16:49:00,29.7,29.0,29.54,NW,315,4.0,4.0,94,0.00,,,0.00,Rainwise IP-100,2013-02-16 21:49:00,
2013-02-16 16:54:00,29.6,29.0,29.54,South,180,0.0,4.0,94,0.00,,,0.00,Rainwise IP-100,2013-02-16 21:54:00,
2013-02-16 16:59:00,29.6,29.0,29.54,NW,315,2.0,5.0,94,0.00,,,0.00,Rainwise IP-100,2013-02-16 21:59:00,
2013-02-16 17:04:00,29.5,29.0,29.53,North,360,1.0,5.0,94,0.00,,,0.00,Rainwise IP-100,2013-02-16 22:04:00,
2013-02-16 17:09:00,29.4,28.0,29.53,North,360,4.0,6.0,94,0.00,,,0.00,Rainwise IP-100,2013-02-16 22:09:00,
2013-02-16 17:14:00,29.3,28.0,29.53,NW,315,2.0,5.0,94,0.00,,,0.00,Rainwise IP-100,2013-02-16 22:14:00,
2013-02-16 17:19:00,29.3,28.0,29.53,NNW,337,6.0,6.0,94,0.00,,,0.00,Rainwise IP-100,2013-02-16 22:19:00,
2013-02-16 17:24:00,29.2,28.0,29.53,NW,315,1.0,6.0,94,0.00,,,0.00,Rainwise IP-100,2013-02-16 22:24:00,
2013-02-16 17:29:00,29.1,28.0,29.53,NW,315,2.0,5.0,94,0.00,,,0.00,Rainwise IP-100,2013-02-16 22:29:00,
2013-02-16 17:34:00,29.1,28.0,29.53,NNW,337,2.0,2.0,94,0.00,,,0.00,Rainwise IP-100,2013-02-16 22:34:00,
2013-02-16 17:39:00,29.0,28.0,29.53,NW,315,1.0,4.0,94,0.00,,,0.00,Rainwise IP-100,2013-02-16 22:39:00,
2013-02-16 17:44:00,28.9,28.0,29.53,WNW,292,5.0,5.0,94,0.00,,,0.00,Rainwise IP-100,2013-02-16 22:44:00,
2013-02-16 17:49:00,28.9,28.0,29.53,East,90,0.0,8.0,94,0.00,,,0.00,Rainwise IP-100,2013-02-16 22:49:00,
2013-02-16 17:54:00,28.9,28.0,29.53,WSW,247,1.0,4.0,94,0.00,,,0.00,Rainwise IP-100,2013-02-16 22:54:00,
2013-02-16 17:59:00,28.9,28.0,29.52,NW,315,2.0,6.0,94,0.00,,,0.00,Rainwise IP-100,2013-02-16 22:59:00,
2013-02-16 18:04:00,28.9,28.0,29.52,North,360,2.0,6.0,94,0.00,,,0.00,Rainwise IP-100,2013-02-16 23:04:00,
2013-02-16 18:09:00,28.9,28.0,29.52,NW,315,1.0,5.0,94,0.00,,,0.00,Rainwise IP-100,2013-02-16 23:09:00,
2013-02-16 18:14:00,28.9,28.0,29.52,WNW,292,1.0,6.0,94,0.00,,,0.00,Rainwise IP-100,2013-02-16 23:14:00,
2013-02-16 18:19:00,28.8,28.0,29.52,North,360,0.0,6.0,94,0.00,,,0.00,Rainwise IP-100,2013-02-16 23:19:00,
2013-02-16 18:24:00,28.8,28.0,29.52,West,270,2.0,5.0,94,0.00,,,0.00,Rainwise IP-100,2013-02-16 23:24:00,
2013-02-16 18:29:00,28.8,28.0,29.52,NW,315,2.0,6.0,94,0.00,,,0.00,Rainwise IP-100,2013-02-16 23:29:00,
2013-02-16 18:34:00,28.8,28.0,29.52,NNW,337,1.0,7.0,94,0.00,,,0.00,Rainwise IP-100,2013-02-16 23:34:00,
2013-02-16 18:39:00,28.8,28.0,29.51,NNW,337,2.0,5.0,94,0.00,,,0.00,Rainwise IP-100,2013-02-16 23:39:00,
2013-02-16 18:44:00,28.7,28.0,29.51,West,270,3.0,6.0,94,0.00,,,0.00,Rainwise IP-100,2013-02-16 23:44:00,
2013-02-16 18:49:00,28.7,28.0,29.51,WNW,292,1.0,7.0,94,0.00,,,0.00,Rainwise IP-100,2013-02-16 23:49:00,
2013-02-16 18:54:00,28.7,28.0,29.51,North,360,2.0,5.0,94,0.00,,,0.00,Rainwise IP-100,2013-02-16 23:54:00,
2013-02-16 18:59:00,28.7,28.0,29.51,WSW,247,2.0,4.0,94,0.00,,,0.00,Rainwise IP-100,2013-02-16 23:59:00,
2013-02-16 19:04:00,28.6,28.0,29.51,NNW,337,2.0,6.0,94,0.00,,,0.00,Rainwise IP-100,2013-02-17 00:04:00,
2013-02-16 19:09:00,28.6,28.0,29.50,North,360,2.0,4.0,94,0.00,,,0.00,Rainwise IP-100,2013-02-17 00:09:00,
2013-02-16 19:14:00,28.5,28.0,29.50,NNW,337,1.0,9.0,94,0.00,,,0.00,Rainwise IP-100,2013-02-17 00:14:00,
2013-02-16 19:19:00,28.5,28.0,29.50,NW,315,3.0,10.0,94,0.00,,,0.00,Rainwise IP-100,2013-02-17 00:19:00,
2013-02-16 19:24:00,28.5,28.0,29.49,West,270,1.0,6.0,94,0.00,,,0.00,Rainwise IP-100,2013-02-17 00:24:00,
2013-02-16 19:29:00,28.4,26.0,29.49,North,360,0.0,6.0,94,0.00,,,0.00,Rainwise IP-100,2013-02-17 00:29:00,
2013-02-16 19:34:00,28.4,26.0,29.49,WNW,292,2.0,6.0,94,0.00,,,0.00,Rainwise IP-100,2013-02-17 00:34:00,
2013-02-16 19:39:00,28.4,26.0,29.49,NNW,337,1.0,7.0,94,0.00,,,0.00,Rainwise IP-100,2013-02-17 00:39:00,
2013-02-16 19:44:00,28.4,26.0,29.49,NNW,337,1.0,6.0,94,0.00,,,0.00,Rainwise IP-100,2013-02-17 00:44:00,
2013-02-16 19:49:00,28.3,26.0,29.49,North,360,1.0,7.0,94,0.00,,,0.00,Rainwise IP-100,2013-02-17 00:49:00,
2013-02-16 19:54:00,28.3,26.0,29.49,WNW,292,2.0,7.0,94,0.00,,,0.00,Rainwise IP-100,2013-02-17 00:54:00,
2013-02-16 19:59:00,28.3,26.0,29.49,WNW,292,2.0,7.0,94,0.00,,,0.00,Rainwise IP-100,2013-02-17 00:59:00,
2013-02-16 20:04:00,28.3,26.0,29.49,North,360,2.0,6.0,94,0.00,,,0.00,Rainwise IP-100,2013-02-17 01:04:00,
2013-02-16 20:09:00,28.3,26.0,29.48,West,270,3.0,7.0,94,0.00,,,0.00,Rainwise IP-100,2013-02-17 01:09:00,
2013-02-16 20:14:00,28.3,26.0,29.48,SW,225,1.0,6.0,94,0.00,,,0.00,Rainwise IP-100,2013-02-17 01:14:00,
2013-02-16 20:19:00,28.2,26.0,29.48,NW,315,1.0,9.0,94,0.00,,,0.00,Rainwise IP-100,2013-02-17 01:19:00,
2013-02-16 20:24:00,28.1,26.0,29.48,WNW,292,1.0,5.0,94,0.00,,,0.00,Rainwise IP-100,2013-02-17 01:24:00,
2013-02-16 20:29:00,28.1,26.0,29.48,East,90,1.0,4.0,94,0.00,,,0.00,Rainwise IP-100,2013-02-17 01:29:00,
2013-02-16 20:34:00,28.0,26.0,29.48,North,360,1.0,7.0,94,0.00,,,0.00,Rainwise IP-100,2013-02-17 01:34:00,
2013-02-16 20:39:00,27.9,26.0,29.48,South,180,2.0,8.0,94,0.00,,,0.00,Rainwise IP-100,2013-02-17 01:39:00,
2013-02-16 20:44:00,27.9,26.0,29.48,North,360,1.0,10.0,94,0.00,,,0.00,Rainwise IP-100,2013-02-17 01:44:00,
2013-02-16 20:49:00,27.9,26.0,29.48,NNW,337,2.0,6.0,94,0.00,,,0.00,Rainwise IP-100,2013-02-17 01:49:00,
2013-02-16 20:54:00,27.8,26.0,29.47,NW,315,2.0,9.0,94,0.00,,,0.00,Rainwise IP-100,2013-02-17 01:54:00,
2013-02-16 20:59:00,27.7,26.0,29.47,North,360,7.0,7.0,94,0.00,,,0.00,Rainwise IP-100,2013-02-17 01:59:00,
2013-02-16 21:04:00,27.7,26.0,29.47,NW,315,6.0,9.0,94,0.00,,,0.00,Rainwise IP-100,2013-02-17 02:04:00,
2013-02-16 21:09:00,27.7,26.0,29.47,WNW,292,2.0,9.0,94,0.00,,,0.00,Rainwise IP-100,2013-02-17 02:09:00,
2013-02-16 21:14:00,27.7,26.0,29.47,NNW,337,2.0,10.0,94,0.00,,,0.00,Rainwise IP-100,2013-02-17 02:14:00,
2013-02-16 21:19:00,27.6,26.0,29.47,SE,135,1.0,8.0,94,0.00,,,0.00,Rainwise IP-100,2013-02-17 02:19:00,
2013-02-16 21:24:00,27.6,26.0,29.47,NNW,337,5.0,11.0,94,0.00,,,0.00,Rainwise IP-100,2013-02-17 02:24:00,
2013-02-16 21:29:00,27.6,26.0,29.47,NNW,337,2.0,9.0,94,0.00,,,0.00,Rainwise IP-100,2013-02-17 02:29:00,
2013-02-16 21:34:00,27.5,26.0,29.47,East,90,2.0,6.0,94,0.00,,,0.00,Rainwise IP-100,2013-02-17 02:34:00,
2013-02-16 21:39:00,27.5,26.0,29.47,WNW,292,6.0,10.0,94,0.00,,,0.00,Rainwise IP-100,2013-02-17 02:39:00,
2013-02-16 21:44:00,27.4,26.0,29.47,North,360,2.0,9.0,94,0.00,,,0.00,Rainwise IP-100,2013-02-17 02:44:00,
2013-02-16 21:49:00,27.4,26.0,29.47,WNW,292,2.0,9.0,94,0.00,,,0.00,Rainwise IP-100,2013-02-17 02:49:00,
2013-02-16 21:54:00,27.3,26.0,29.47,East,90,1.0,9.0,94,0.00,,,0.00,Rainwise IP-100,2013-02-17 02:54:00,
2013-02-16 21:59:00,27.2,26.0,29.46,SW,225,2.0,7.0,94,0.00,,,0.00,Rainwise IP-100,2013-02-17 02:59:00,
2013-02-16 22:04:00,27.2,26.0,29.46,North,360,1.0,6.0,94,0.00,,,0.00,Rainwise IP-100,2013-02-17 03:04:00,
2013-02-16 22:09:00,27.1,26.0,29.45,East,90,2.0,9.0,94,0.00,,,0.00,Rainwise IP-100,2013-02-17 03:09:00,
2013-02-16 22:14:00,27.0,26.0,29.45,North,360,2.0,9.0,94,0.00,,,0.00,Rainwise IP-100,2013-02-17 03:14:00,
2013-02-16 22:19:00,26.9,26.0,29.45,NW,315,4.0,9.0,94,0.00,,,0.00,Rainwise IP-100,2013-02-17 03:19:00,
2013-02-16 22:24:00,26.8,26.0,29.45,NW,315,2.0,9.0,94,0.00,,,0.00,Rainwise IP-100,2013-02-17 03:24:00,
2013-02-16 22:29:00,26.7,26.0,29.44,South,180,2.0,11.0,94,0.00,,,0.00,Rainwise IP-100,2013-02-17 03:29:00,
2013-02-16 22:34:00,26.7,26.0,29.43,WNW,292,2.0,9.0,94,0.00,,,0.00,Rainwise IP-100,2013-02-17 03:34:00,
2013-02-16 22:39:00,26.6,26.0,29.43,North,360,2.0,7.0,94,0.00,,,0.00,Rainwise IP-100,2013-02-17 03:39:00,
2013-02-16 22:44:00,26.6,26.0,29.43,NW,315,4.0,9.0,94,0.00,,,0.00,Rainwise IP-100,2013-02-17 03:44:00,
2013-02-16 22:49:00,26.6,26.0,29.43,East,90,0.0,9.0,94,0.00,,,0.00,Rainwise IP-100,2013-02-17 03:49:00,
2013-02-16 22:54:00,26.5,26.0,29.43,East,90,0.0,7.0,94,0.00,,,0.00,Rainwise IP-100,2013-02-17 03:54:00,
2013-02-16 22:59:00,26.5,26.0,29.43,East,90,1.0,9.0,94,0.00,,,0.00,Rainwise IP-100,2013-02-17 03:59:00,
2013-02-16 23:04:00,26.5,26.0,29.43,NW,315,2.0,4.0,94,0.00,,,0.00,Rainwise IP-100,2013-02-17 04:04:00,
2013-02-16 23:09:00,26.5,26.0,29.43,WNW,292,4.0,7.0,94,0.00,,,0.00,Rainwise IP-100,2013-02-17 04:09:00,
2013-02-16 23:14:00,26.5,26.0,29.43,NNW,337,1.0,7.0,94,0.00,,,0.00,Rainwise IP-100,2013-02-17 04:14:00,
2013-02-16 23:19:00,26.5,26.0,29.43,NW,315,3.0,10.0,94,0.00,,,0.00,Rainwise IP-100,2013-02-17 04:19:00,
2013-02-16 23:24:00,26.5,26.0,29.42,East,90,2.0,9.0,94,0.00,,,0.00,Rainwise IP-100,2013-02-17 04:24:00,
2013-02-16 23:29:00,26.4,24.0,29.41,East,90,3.0,7.0,94,0.00,,,0.00,Rainwise IP-100,2013-02-17 04:29:00,
2013-02-16 23:34:00,26.3,24.0,29.41,WNW,292,2.0,13.0,94,0.00,,,0.00,Rainwise IP-100,2013-02-17 04:34:00,
2013-02-16 23:39:00,26.2,24.0,29.42,NW,315,1.0,11.0,94,0.00,,,0.00,Rainwise IP-100,2013-02-17 04:39:00,
2013-02-16 23:44:00,25.9,24.0,29.41,North,360,3.0,11.0,94,0.00,,,0.00,Rainwise IP-100,2013-02-17 04:44:00,
2013-02-16 23:49:00,25.8,24.0,29.41,NNW,337,2.0,12.0,94,0.00,,,0.00,Rainwise IP-100,2013-02-17 04:49:00,
2013-02-16 23:54:00,25.6,24.0,29.41,NNW,337,4.0,11.0,94,0.00,,,0.00,Rainwise IP-100,2013-02-17 04:54:00,
2013-02-16 23:59:00,25.6,24.0,29.42,NW,315,2.0,8.0,94,0.00,,,0.00,Rainwise IP-100,2013-02-17 04:59:00,